DMSP 5D-2 F13 DEB, 40415

Orbit data source: Space-Track

DMSP 5D-2 F13 DEB, 40415 is space debris in SSO originally from a launch on Fri, 24 Mar 1995 UTC launched from the Air Force Western Test Range (AFWTR). Debris objects in space refer to the collection of defunct objects orbiting the Earth. Examples of debris include non-operational satellites, rocket bodies, and fragments generated from explosions, collisions, or faulty payload assembly.

Loading next visibility...
DMSP 5D-2 F13 DEB details
Identifier
40415, 1995-015AC
Orbit
SSO
Last TLE update23 hours ago
Origin
Flag of USUSAF SMC (US)
ManufacturerUnknown
MissionSpacecraft
Bus & MotorUnknown
MassUnknown
Launch date (UTC)
1995-03-24 (30 years ago)
Launch vehicleUnknown
Launch site
Air Force Western Test Range (AFWTR)
Object type
Payload
Rocket body
Debris
Shape & HBRUnknown
Radar Cross SectionSmall (<0.1 m²)

Expand to show TLE details & history

TLE from 23 hours ago
0 DMSP 5D-2 F13 DEB
1 40415U 95015AC  24360.51230647  .00006184  00000-0  26043-2 0  9993
2 40415  98.7599  16.5104 0006562 103.7486 256.4424 14.26065252511274
Epoch: 2024-12-25T12:17Z
Definitive object data (Epoch: 2024-12-25T12:17:43.279Z)
Latitude-0.00004°
Longitude97.57509°
Altitude808.943 km
Speed7.448 km/s
True Right ascension01h 06m 02s
True Declination0° 00' 00"
Sunlit
Object was in daylight at TLE epoch
Visualization TLE readout
Latitude34.27639°
Longitude-75.48868°
Altitude806.009 km
Speed7.455 km/s
Apparent Right ascension17h 06m 58s
Apparent Declination0° 33' 02"
Sunlit
Object is in daylight
Visualization observer readout
Local Sidereal Time10:13:08
Azimuth81.693° E
Elevation-10.644°
Doppler factor1
Orbital elements
Apogee altitude806.778 km
Perigee altitude797.355 km
Semi-major axis7,180.203 km
Eccentricity0.0006562
Inclination98.7599°
RAAN16.5104°
Arg. of periapsis103.7486°
True anomaly256.36931°
Mean anomaly256.4424°
Eccentric anomaly256.40586°
Mean motion3.56729 °/min
BSTAR0.0026043
Orbital period100.92 mins
Loading maneuver chart data...

DMSP 5D-2 F13 DEB Visibility forecast

Observer location: undefined°, undefined

Span
Click to sort rows by Start time (UTC) header in descending order
Start Az.
Max El. time (UTC)
Max El. Az.
Max El.
End time (UTC)
End Az.
9 mins2024-12-26 14:07:52.846Z16.418° NNE2024-12-26 14:12:52.846Z162.176° S43.564°2024-12-26 14:16:52.846Z190.456° SSW
4 mins2024-12-26 23:50:52.846Z81.392° E2024-12-26 23:52:52.846Z55.604° ENE14.75°2024-12-26 23:54:52.846Z31.682° NE
8 mins2024-12-27 01:27:52.846Z176.826° S2024-12-27 01:31:52.846Z278.439° WNW42.867°2024-12-27 01:35:52.846Z339.673° N
|